Regional Weather Roundup
Issued by NWS

Home | Current Version | Previous Version | Text Only | Print | Product List | Glossary Off
Versions: 1 2 3 4 5 6 7 8 9 10 11 12 13 14 15 16 17 18 19 20 21 22 23 24 25 26 27 28 29 30 31 32 33 34 35 36 37 38 39 40 41 42 43 44 45 46 47 48 49 50

000
ASUS43 KLSX 070907
RWRMO

WEATHER SUMMARY FOR MISSOURI
NATIONAL WEATHER SERVICE SPRINGFIELD MO
400 AM CDT TUE JUL 07 2015

NOTE: "FAIR" INDICATES FEW OR NO CLOUDS BELOW 12,000 FEET WITH NO
       SIGNIFICANT WEATHER AND/OR OBSTRUCTIONS TO VISIBILITY.
       CURRENT SKY AND/OR WEATHER CONDITIONS ARE NOT AVAILABLE FOR
       CHILLICOTHE AND FARMINGTON.

MOZ001>031-035>038-043-044-053-054-071000-
...NORTHERN AND WESTERN MISSOURI...

CITY           SKY/WX    TMP DP  RH WIND       PRES   REMARKS
KANSAS CTY INT LGT RAIN  61  60  97 NE9       30.01R FOG
KANSAS C DTWN  HVY RAIN  62  60  93 NE15      30.00R FOG
LEE`S SUMMIT   RAIN      62  60  93 N22G28    29.98R FOG
ST JOSEPH      CLOUDY    67  63  87 MISG      30.02R FOG
CHILLICOTHE      N/A     63  61  93 VRB3      30.02R
KIRKSVILLE     CLOUDY    65  59  81 N10       29.96S HAZE

$$
MOZ066>068-077>081-088>096-101>105-071000-
...SOUTHWEST MISSOURI...

CITY           SKY/WX    TMP DP  RH WIND       PRES   REMARKS
SPRINGFIELD    LGT RAIN  74  72  93 CALM      29.94F
JOPLIN         CLOUDY    73  71  93 SW5       29.94S FOG

$$
MOZ032>034-039>042-045>050-055>058-069>072-071000-
...CENTRAL MISSOURI...

CITY           SKY/WX    TMP DP  RH WIND       PRES   REMARKS
COLUMBIA       LGT RAIN  72  71  97 W7        29.92S
ROLLA          LGT RAIN  70  69  97 SW8       29.94S
SEDALIA        LGT RAIN  73  70  90 N7        29.93F
WHITEMAN AFB   MOCLDY    69  68  96 N16G24    29.92F
WARRENSBURG    CLOUDY    63  63 100 N18       29.94S FOG
OSAGE BEACH    CLOUDY    72  68  88 CALM      29.94S

$$
MOZ051-052-059>065-071000-
...EAST CENTRAL MISSOURI...

CITY           SKY/WX    TMP DP  RH WIND       PRES   REMARKS
ST LOUIS INTL  CLOUDY    81  71  71 W13       29.89R
SPIRIT OF STL  LGT RAIN  76  71  85 W12G23    29.88R
ST CHARLES     LGT RAIN  80  70  71 W15       29.87R

$$
MOZ072>076-082>087-097>100-106>115-071000-
...SOUTH CENTRAL AND SOUTHEAST MISSOURI...

CITY           SKY/WX    TMP DP  RH WIND       PRES   REMARKS
CAPE GIRARDEAU MOCLDY    75  71  87 SW8       29.94F
FARMINGTON     CLOUDY    75  72  88 SW10      29.97S
POPLAR BLUFF   CLOUDY    76  74  93 S6        29.94F
WEST PLAINS    CLOUDY    77  71  82 SW9       29.98S

$$



USA.gov is the U.S. government's official web portal to all federal, state and local government web resources and services.